Regional Weather Roundup
Issued by NWS Northern Indiana

Home | Current Version | Previous Version | Graphics & Text | Print | Product List | Glossary On
Versions: 1 2 3 4 5 6 7 8 9 10 11 12 13 14 15 16 17 18 19 20 21 22 23 24 25 26 27 28 29 30 31 32 33 34 35 36 37 38 39 40 41 42 43 44 45 46 47 48 49 50
000
ASUS43 KIWX 031800
RWRIWX

KIWX WEATHER ROUNDUP
NATIONAL WEATHER SERVICE NORTHERN INDIANA
200 PM EDT THU SEP 03 2015

NOTE: "FAIR" INDICATES FEW OR NO CLOUDS BELOW 12,000 FEET WITH NO
SIGNIFICANT WEATHER AND/OR OBSTRUCTIONS TO VISIBILITY.

* THESE STATIONS ARE NOT UNDER NWS QUALITY CONTROL. THEY ALSO MAY NOT
  REPORT WEATHER SUCH AS PRECIPITATION OR FOG.

INZ001>027-031900-
NORTHERN INDIANA

CITY           SKY/WX    TMP DP  RH WIND       PRES   REMARKS
GARY*          PTSUNNY   90  64  43 W13       29.95S
KNOX*          MOSUNNY   88  64  45 SW13      29.95F
SOUTH BEND     MOSUNNY   86  69  56 SW12      29.95F
6HR MIN TEMP:  70; 6HR MAX TEMP:  87;

GOSHEN         PTSUNNY   87  68  52 W10       29.96F
6HR MIN TEMP:  70; 6HR MAX TEMP:  88;

MONTICELLO*    MOSUNNY   88  69  52 SW13      29.97F
6HR MIN TEMP:  69; 6HR MAX TEMP:  89;

ANGOLA*        PTSUNNY   90  70  51 W13       29.97S HX  95
FORT WAYNE     MOSUNNY   88  68  51 W13G20    29.98F
6HR MIN TEMP:  70; 6HR MAX TEMP:  88;

PERU/GRISSOM   MOSUNNY   88  68  50 W14       29.97F
6HR MIN TEMP:  69; 6HR MAX TEMP:  90;


$$
INZ028>050-031900-
CENTRAL INDIANA

CITY           SKY/WX    TMP DP  RH WIND       PRES   REMARKS
LAFAYETTE      MOSUNNY   89  65  44 W9G16     29.97F
6HR MIN TEMP:  68; 6HR MAX TEMP:  90;

KOKOMO*        MOSUNNY   88  66  48 W9        29.99F
6HR MIN TEMP:  68; 6HR MAX TEMP:  90;

MUNCIE*        MOSUNNY   86  68  54 VRB5      30.00F
6HR MIN TEMP:  70; 6HR MAX TEMP:  86;

INDIANAPOLIS   PTSUNNY   89  66  46 SW12      30.00F
6HR MIN TEMP:  70; 6HR MAX TEMP:  89;


$$
MIZ043>046-050>051-056>058-064>065-071>073-077>080-031900-
SOUTHWEST LOWER MICHIGAN

CITY           SKY/WX    TMP DP  RH WIND       PRES   REMARKS
BATTLE CREEK   PTSUNNY   85  70  60 W10       29.95S
6HR MIN TEMP:  71; 6HR MAX TEMP:  85;

BENTON HARBOR  PTSUNNY   85  70  60 W15       29.94F
6HR MIN TEMP:  70; 6HR MAX TEMP:  86;

COLDWATER*     MOSUNNY   88  66  47 SW9       29.96F
6HR MIN TEMP:  71; 6HR MAX TEMP:  88;

HILLSDALE*     MOSUNNY   87  67  51 SW13      29.97F
6HR MIN TEMP:  71; 6HR MAX TEMP:  88;

HOLLAND        PTSUNNY   82  71  69 W13       29.93F
6HR MIN TEMP:  74; 6HR MAX TEMP:  82;

GRAND RAPIDS   LGT RAIN  77  74  90 W7        29.92F FOG
6HR MIN TEMP:  71; 6HR MAX TEMP:  79; 6HR PCP:  0.54;

KALAMAZOO      MOSUNNY   87  68  52 SW15      29.94F
6HR MIN TEMP:  71; 6HR MAX TEMP:  88;

STURGIS*       CLOUDY    84  70  61 W7        29.96S
THREE RIVERS*  PTSUNNY   87  69  53 SW7       29.95F
6HR MIN TEMP:  69; 6HR MAX TEMP:  87;


$$
OHZ001>008-015>018-024>025-031900-
NORTHWEST OHIO

CITY           SKY/WX    TMP DP  RH WIND       PRES   REMARKS
DEFIANCE       MOSUNNY   89  64  43 VRB6      29.96F
6HR MIN TEMP:  71; 6HR MAX TEMP:  89;

FINDLAY        MOSUNNY   89  69  51 W12       29.96F
6HR MIN TEMP:  70; 6HR MAX TEMP:  89;

TOLEDO EXPRESS MOSUNNY   88  69  53 SW10      29.94F
6HR MIN TEMP:  69; 6HR MAX TEMP:  88;

TOLEDO METCALF SUNNY     88  68  51 W10       29.94F
6HR MIN TEMP:  71; 6HR MAX TEMP:  88;

LIMA           SUNNY     88  68  51 SW14      29.99F
6HR MIN TEMP:  70; 6HR MAX TEMP:  88;


$$
AND FOR LAKE MICHIGAN COASTAL AND OPEN LAKE BUOY OBSERVATIONS

STATION/POSITION TEMP    WIND        PRES    VSBY  WAVE
                 AIR SEA DIR/SP/G                  HT/PER
                 (F)     (DEG/KT/KT) (MB)    (MI)  (FT/S)
CALUMET HARBOR    87     220/  9/ 14   N/A
MICHIGAN CITY     81     230/  8/  9   N/A
BURNS HARBOR      84     220/  9/ 11 1014.6F
SAINT JOSEPH      80     180/ 10/ 13 1014.6F
SOUTH LAKE BUOY   73 72  220/  6/  6 1012.8F         1/ 3
4 MI NW BRIDGMAN  76 73  260/  6/  8   N/A           1/ 3
MICHIGAN CITY     78 74  230/  4/  4   N/A           1

$$
&&


USA.gov is the U.S. government's official web portal to all federal, state and local government web resources and services.